DW7253 Weather Reports


Display with metric or nautical units.
time (UTC)temp
F
wind
direction
speed
MPH
gust
MPH
rain 1hr
in
rain 24hr
in
rain mn
in
humidity
%
barometer
mb
20260509053107 52 254 2.0 5.0 0.00 0.00 0.00 91 1004.4
20260509051603 52 224 0.0 4.0 0.00 0.00 0.00 91 1004.4
20260509050104 53 225 0.0 3.0 0.00 0.00 0.00 91 1004.6
20260509044557 53 224 1.0 4.0 0.00 0.00 0.00 90 1004.5
20260509043054 53 227 0.0 3.0 0.00 0.00 0.00 89 1004.5
20260509041554 54 227 0.0 1.0 0.00 0.00 0.00 89 1004.6
20260509040052 54 227 0.0 1.0 0.00 0.00 0.00 88 1004.7
20260509034549 54 228 0.0 3.0 0.00 0.00 0.00 87 1004.9
20260509033049 55 227 0.0 3.0 0.00 0.00 0.00 86 1004.9
20260509031546 55 226 0.0 4.0 0.00 0.00 0.00 85 1004.9
20260509030046 56 227 0.0 5.0 0.00 0.00 0.00 83 1005.0
20260509024545 56 230 1.0 6.0 0.00 0.00 0.00 81 1005.2
20260509023045 56 237 2.0 8.0 0.00 0.00 0.00 79 1005.3
20260509021545 57 249 3.0 8.0 0.00 0.00 0.00 78 1005.3
20260509020045 57 230 1.0 5.0 0.00 0.00 0.00 77 1005.1
20260509014546 57 245 2.0 9.0 0.00 0.00 0.00 76 1005.0
20260509013051 58 359 2.0 9.0 0.00 0.00 0.00 77 1005.0
20260509011544 58 247 4.0 8.0 0.00 0.00 0.00 79 1004.9
20260509010042 58 359 2.0 7.0 0.00 0.00 0.00 79 1004.7
20260509004542 59 192 1.0 6.0 0.00 0.00 0.00 77 1004.5
20260509003041 59 359 5.0 12.0 0.00 0.00 0.00 74 1004.5
20260509001541 60 258 3.0 7.0 0.00 0.00 0.00 71 1004.4
20260509000039 60 258 2.0 7.0 0.00 0.00 0.00 72 1004.6
20260508234539 60 246 4.0 8.0 0.00 0.00 0.00 72 1004.5
20260508233047 60 359 3.0 11.0 0.00 0.00 0.00 72 1004.6
20260508231538 61 359 6.0 12.0 0.00 0.00 0.00 71 1004.7
20260508230032 61 261 5.0 16.0 0.00 0.00 0.00 72 1004.8
20260508224531 61 359 5.0 11.0 0.00 0.00 0.00 71 1004.8
20260508223033 60 256 3.0 15.0 0.00 0.00 0.00 72 1005.0
20260508221531 60 279 8.0 16.0 0.00 0.00 0.00 72 1004.9
20260508220034 60 359 9.0 17.0 0.00 0.00 0.00 71 1004.8
20260508214530 60 359 7.0 16.0 0.00 0.00 0.00 72 1004.8
20260508213033 60 243 3.0 6.0 0.00 0.00 0.00 72 1004.8
20260508211533 60 233 3.0 7.0 0.00 0.00 0.00 71 1005.0
20260508210026 60 204 2.0 8.0 0.00 0.00 0.00 71 1005.2
20260508204524 60 275 3.0 9.0 0.00 0.00 0.00 70 1005.1
20260508203022 61 178 1.0 5.0 0.00 0.00 0.00 70 1005.4
20260508201521 61 143 3.0 6.0 0.00 0.00 0.00 69 1005.6
20260508200024 61 129 0.0 8.0 0.00 0.00 0.00 69 1005.9
20260508194518 62 221 2.0 4.0 0.00 0.00 0.00 68 1006.0
20260508193012 60 143 2.0 8.0 0.00 0.00 0.00 71 1006.2
20260508191509 59 189 1.0 8.0 0.00 0.00 0.00 74 1006.6
20260508190007 58 116 1.0 5.0 0.00 0.00 0.00 77 1006.8
20260508184506 57 133 0.0 5.0 0.00 0.00 0.00 80 1007.1
20260508183105 56 173 0.0 3.0 0.00 0.00 0.00 82 1007.3
20260508181557 56 210 1.0 4.0 0.00 0.00 0.00 82 1007.7
20260508180056 56 171 2.0 5.0 0.00 0.00 0.00 82 1007.9
20260508174605 55 206 2.0 5.0 0.00 0.00 0.00 82 1008.1
20260508173049 55 240 1.0 3.0 0.00 0.00 0.00 82 1008.1
20260508171547 55 240 0.0 2.0 0.00 0.00 0.00 83 1008.4
20260508170050 54 241 1.0 3.0 0.00 0.00 0.00 83 1008.6
20260508164545 54 249 1.0 5.0 0.00 0.00 0.00 84 1008.8
20260508163040 54 257 1.0 7.0 0.00 0.00 0.00 83 1008.9
20260508161545 54 242 2.0 7.0 0.00 0.00 0.00 83 1009.1
20260508160043 54 269 4.0 7.0 0.00 0.00 0.00 82 1009.3
20260508154543 54 241 2.0 5.0 0.00 0.00 0.00 84 1009.2
20260508153036 53 261 5.0 10.0 0.00 0.00 0.00 84 1009.3
20260508151535 53 273 2.0 8.0 0.00 0.00 0.00 86 1009.1
20260508150033 53 264 3.0 8.0 0.00 0.00 0.00 88 1009.0
20260508144530 52 241 5.0 10.0 0.00 0.00 0.00 90 1009.1
20260508143034 51 268 2.0 8.0 0.00 0.00 0.00 92 1009.4
20260508141525 50 249 4.0 7.0 0.00 0.00 0.00 92 1009.3
20260508140033 49 232 2.0 5.0 0.00 0.00 0.00 92 1009.6
20260508134520 49 239 1.0 6.0 0.00 0.00 0.00 92 1009.7
20260508133016 49 244 4.0 9.0 0.00 0.00 0.00 91 1010.0
20260508131514 49 359 3.0 8.0 0.00 0.00 0.00 91 1010.0
20260508130013 48 228 3.0 5.0 0.00 0.00 0.00 91 1009.8
20260508124523 48 239 1.0 5.0 0.00 0.00 0.00 91 1009.6
20260508123019 48 239 2.0 4.0 0.00 0.00 0.00 91 1009.7
20260508121507 47 248 2.0 4.0 0.00 0.00 0.00 91 1009.4
20260508120005 47 359 2.0 7.0 0.00 0.00 0.00 91 1009.5
20260508114503 47 230 3.0 6.0 0.00 0.00 0.00 92 1009.6
20260508113106 46 242 1.0 4.0 0.00 0.00 0.00 92 1009.3
20260508111610 46 251 2.0 4.0 0.00 0.00 0.00 92 1009.3
20260508110059 46 252 0.0 3.0 0.00 0.00 0.00 91 1009.2
20260508104604 45 251 0.0 2.0 0.00 0.00 0.00 91 1009.3
20260508103056 45 251 0.0 2.0 0.00 0.00 0.00 91 1009.2
20260508101554 46 251 1.0 3.0 0.00 0.00 0.00 91 1009.2
20260508100054 46 251 1.0 4.0 0.00 0.00 0.00 90 1009.3
20260508094554 46 228 1.0 4.0 0.00 0.00 0.00 90 1009.1
20260508093056 46 239 2.0 4.0 0.00 0.00 0.00 90 1009.1
20260508091559 46 250 2.0 7.0 0.00 0.00 0.00 91 1009.1
20260508090059 46 359 3.0 6.0 0.00 0.00 0.00 91 1009.3
20260508084547 46 359 3.0 7.0 0.00 0.00 0.00 92 1009.4
20260508083045 45 248 2.0 5.0 0.00 0.00 0.00 92 1009.4
20260508081552 45 263 2.0 5.0 0.00 0.00 0.00 92 1009.4
20260508080049 45 246 3.0 5.0 0.00 0.00 0.00 92 1009.4
20260508074542 45 359 2.0 6.0 0.00 0.00 0.00 92 1009.3
20260508073045 45 256 3.0 7.0 0.00 0.00 0.00 92 1009.3
20260508071553 45 359 2.0 5.0 0.00 0.00 0.00 93 1009.3
20260508070051 44 226 0.0 2.0 0.00 0.00 0.00 93 1009.3
20260508064539 44 359 1.0 4.0 0.00 0.00 0.00 93 1009.3
20260508063035 44 228 1.0 4.0 0.00 0.00 0.00 93 1009.3
20260508061535 44 227 0.0 4.0 0.00 0.00 0.00 93 1009.4
20260508060037 44 235 0.0 3.0 0.00 0.00 0.00 93 1009.4
20260508054541 44 237 1.0 4.0 0.00 0.00 0.00 93 1009.5